Puyallup, WA

2:58 PM PDT on April 26, 2018 (GMT -0700)
Pierce County - Thun Field

Weather History for KPLU - January, 2013

Change the Weather History Date:

Monday, January 21, 2013

  Actual Average (KTCM) Record (KTCM)
Temperature  
Mean Temperature 30 °F -  
Max Temperature 32 °F 45 °F 63 °F (1981)
Min Temperature 28 °F 33 °F 21 °F (2008)
Degree Days  
Heating Degree Days 35    
Moisture  
Dew Point 31 °F    
Average Humidity 100    
Maximum Humidity 100    
Minimum Humidity 100    
Precipitation  
Precipitation 0.00 in - - ()
Sea Level Pressure  
Sea Level Pressure 30.19 in    
Wind  
Wind Speed 0 mph (North)    
Max Wind Speed 0 mph    
Max Gust Speed -    
Averages and records for this station are not official NWS values.
T = Trace of Precipitation, MM = Missing Value Source: NWS Daily Summary

Daily Weather History Graph

Daily Weather History Graph

Search for Another Location

Airport or City:

Astronomy

Jan. 21, 2013 Rise Set
Actual Time 7:45 AM PST 4:55 PM PST
Civil Twilight 7:12 AM PST 5:29 PM PST
Nautical Twilight 6:34 AM PST 6:06 PM PST
Astronomical Twilight 5:58 AM PST 6:43 PM PST
Moon 12:37 PM PST (1/21) 3:20 AM PST (1/21)
Length of Visible Light 10h 17m
Length of Day
9h 09m
Waxing Gibbous, 76% of the Moon is Illuminated
Jan 21
Waxing Gibbous
Jan 26
Full
Feb 3
Last Quarter
Feb 9
New
Feb 17
First Quarter

Hourly Weather History & Observations

Time (PST) Temp. Dew Point Humidity Pressure Visibility Wind Dir Wind Speed Gust Speed Precip Events Conditions
12:15 AM 32.0 °F 32.0 °F 100% 30.26 in 0.2 mi Calm Calm - N/A Fog Fog
12:35 AM 32.0 °F 32.0 °F 100% 30.26 in 0.5 mi Calm Calm - N/A Fog Fog
12:55 AM 32.0 °F 32.0 °F 100% 30.26 in 0.2 mi Calm Calm - N/A Fog Fog
1:15 AM 32.0 °F 32.0 °F 100% 30.26 in 0.2 mi Calm Calm - N/A Fog Fog
1:35 AM 32.0 °F 32.0 °F 100% 30.26 in 0.5 mi Calm Calm - N/A Fog Fog
1:55 AM 32.0 °F 32.0 °F 100% 30.26 in 0.5 mi Calm Calm - N/A Fog Fog
2:15 AM 32.0 °F 32.0 °F 100% 30.27 in 0.2 mi Calm Calm - N/A Fog Fog
2:55 AM 32.0 °F 32.0 °F 100% 30.26 in 0.2 mi Calm Calm - N/A Fog Fog
3:15 AM 32.0 °F 32.0 °F 100% 30.26 in 0.2 mi Calm Calm - N/A Fog Fog
3:35 AM 32.0 °F 32.0 °F 100% 30.25 in 0.2 mi Calm Calm - N/A Fog Fog
3:55 AM 32.0 °F 32.0 °F 100% 30.25 in 0.2 mi Calm Calm - N/A Fog Light Freezing Fog
4:15 AM 32.0 °F 32.0 °F 100% 30.25 in 0.2 mi Calm Calm - N/A Fog Light Freezing Fog
4:35 AM 32.0 °F 32.0 °F 100% 30.25 in 0.2 mi Calm Calm - N/A Fog Light Freezing Fog
4:55 AM 32.0 °F 32.0 °F 100% 30.24 in 0.2 mi Calm Calm - N/A Fog Light Freezing Fog
5:15 AM 32.0 °F 32.0 °F 100% 30.23 in 0.2 mi Calm Calm - N/A Fog Light Freezing Fog
5:35 AM 32.0 °F 32.0 °F 100% 30.23 in 0.2 mi Calm Calm - N/A Fog Light Freezing Fog
5:55 AM 32.0 °F 32.0 °F 100% 30.22 in 0.5 mi Calm Calm - N/A Fog Light Freezing Fog
6:15 AM 30.2 °F 30.2 °F 100% 30.20 in 0.2 mi Calm Calm - N/A Fog Light Freezing Fog
6:35 AM 30.2 °F 30.2 °F 100% 30.20 in 0.5 mi Calm Calm - N/A Fog Light Freezing Fog
6:55 AM 30.2 °F 30.2 °F 100% 30.20 in 0.5 mi Calm Calm - N/A Fog Light Freezing Fog
7:15 AM 30.2 °F 30.2 °F 100% 30.19 in 0.5 mi Calm Calm - N/A Fog Light Freezing Fog
7:35 AM 30.2 °F 30.2 °F 100% 30.19 in 0.5 mi Calm Calm - N/A Fog Light Freezing Fog
7:55 AM 30.2 °F 30.2 °F 100% 30.20 in 0.2 mi Calm Calm - N/A Fog Light Freezing Fog
8:15 AM 30.2 °F 30.2 °F 100% 30.19 in 0.2 mi Calm Calm - N/A Fog Light Freezing Fog
8:35 AM 30.2 °F 30.2 °F 100% 30.20 in 0.2 mi Calm Calm - N/A Fog Light Freezing Fog
8:55 AM 30.2 °F 30.2 °F 100% 30.21 in 0.2 mi Calm Calm - N/A Fog Light Freezing Fog
9:15 AM 32.0 °F 32.0 °F 100% 30.22 in 0.2 mi Calm Calm - N/A Fog Light Freezing Fog
9:35 AM 32.0 °F 32.0 °F 100% 30.22 in 0.2 mi Calm Calm - N/A Fog Light Freezing Fog
9:55 AM 32.0 °F 32.0 °F 100% 30.22 in 0.2 mi Calm Calm - N/A Fog Light Freezing Fog
10:15 AM 32.0 °F 32.0 °F 100% 30.22 in 0.2 mi Calm Calm - N/A Fog Light Freezing Fog
10:35 AM 32.0 °F 32.0 °F 100% 30.23 in 0.2 mi Calm Calm - N/A Fog Light Freezing Fog
10:55 AM 32.0 °F 32.0 °F 100% 30.23 in 0.2 mi Calm Calm - N/A Fog Fog
11:15 AM 32.0 °F 32.0 °F 100% 30.22 in 0.2 mi Calm Calm - N/A Fog Fog
11:35 AM 32.0 °F 32.0 °F 100% 30.22 in 0.2 mi Calm Calm - N/A Fog Fog
11:55 AM 32.0 °F 32.0 °F 100% 30.21 in 0.2 mi Calm Calm - N/A Fog Fog
12:15 PM 32.0 °F 32.0 °F 100% 30.20 in 0.2 mi Calm Calm - N/A Fog Fog
12:35 PM 32.0 °F 32.0 °F 100% 30.18 in 0.2 mi Calm Calm - N/A Fog Fog
12:55 PM 32.0 °F 32.0 °F 100% 30.19 in 0.5 mi Calm Calm - N/A Fog Fog
1:15 PM 32.0 °F 32.0 °F 100% 30.19 in 0.5 mi Calm Calm - N/A Fog Fog
1:35 PM 32.0 °F 32.0 °F 100% 30.18 in 0.2 mi Calm Calm - N/A Fog Fog
1:55 PM 32.0 °F 32.0 °F 100% 30.18 in 0.2 mi Calm Calm - N/A Fog Fog
2:15 PM 32.0 °F 32.0 °F 100% 30.17 in 0.2 mi Calm Calm - N/A Fog Fog
2:35 PM 32.0 °F 32.0 °F 100% 30.16 in 0.2 mi Calm Calm - N/A Fog Fog
2:55 PM 32.0 °F 32.0 °F 100% 30.16 in 0.2 mi Calm Calm - N/A Fog Fog
3:15 PM 32.0 °F 32.0 °F 100% 30.15 in 0.2 mi Calm Calm - N/A Fog Fog
3:35 PM 32.0 °F 32.0 °F 100% 30.15 in 0.2 mi Calm Calm - N/A Fog Fog
3:55 PM 32.0 °F 32.0 °F 100% 30.14 in 0.2 mi Calm Calm - N/A Fog Fog
4:15 PM 32.0 °F 32.0 °F 100% 30.15 in 0.2 mi Calm Calm - N/A Fog Fog
4:35 PM 32.0 °F 32.0 °F 100% 30.16 in 0.2 mi Calm Calm - N/A Fog Fog
4:55 PM 32.0 °F 32.0 °F 100% 30.16 in 0.2 mi Calm Calm - N/A Fog Fog
5:15 PM 32.0 °F 32.0 °F 100% 30.15 in 0.2 mi Calm Calm - N/A Fog Fog
5:35 PM 32.0 °F 32.0 °F 100% 30.15 in 0.2 mi Calm Calm - N/A Fog Fog
5:55 PM 32.0 °F 32.0 °F 100% 30.14 in 0.2 mi Calm Calm - N/A Fog Fog
6:15 PM 32.0 °F 32.0 °F 100% 30.14 in 0.2 mi Calm Calm - N/A Fog Light Freezing Fog
6:35 PM 32.0 °F 32.0 °F 100% 30.14 in 0.2 mi Calm Calm - N/A Fog Light Freezing Fog
6:55 PM 32.0 °F 32.0 °F 100% 30.14 in 0.2 mi Calm Calm - N/A Fog Light Freezing Fog
7:15 PM 32.0 °F 32.0 °F 100% 30.14 in 0.2 mi Calm Calm - N/A Fog Light Freezing Fog
7:35 PM 32.0 °F 32.0 °F 100% 30.15 in 0.2 mi Calm Calm - N/A Fog Light Freezing Fog
7:55 PM 32.0 °F 32.0 °F 100% 30.15 in 0.2 mi Calm Calm - N/A Fog Light Freezing Fog
8:15 PM 32.0 °F 32.0 °F 100% 30.15 in 0.2 mi Calm Calm - N/A Fog Light Freezing Fog
8:35 PM 30.2 °F 30.2 °F 100% 30.14 in 0.5 mi Calm Calm - N/A Fog Light Freezing Fog
8:55 PM 30.2 °F 30.2 °F 100% 30.14 in 0.2 mi Calm Calm - N/A Fog Light Freezing Fog
9:15 PM 28.4 °F 28.4 °F 100% 30.14 in 0.2 mi Calm Calm - N/A Fog Light Freezing Fog
9:35 PM 28.4 °F 28.4 °F 100% 30.14 in 0.2 mi Calm Calm - N/A Fog Light Freezing Fog
9:55 PM 28.4 °F 28.4 °F 100% 30.15 in 0.2 mi Calm Calm - N/A Fog Light Freezing Fog
10:15 PM 28.4 °F 28.4 °F 100% 30.14 in 0.2 mi Calm Calm - N/A Fog Light Freezing Fog
10:35 PM 28.4 °F 28.4 °F 100% 30.14 in 0.5 mi Calm Calm - N/A Fog Light Freezing Fog
10:55 PM 28.4 °F 28.4 °F 100% 30.14 in 0.2 mi Calm Calm - N/A Fog Light Freezing Fog
11:15 PM 28.4 °F 28.4 °F 100% 30.13 in 0.5 mi Calm Calm - N/A Fog Light Freezing Fog
11:55 PM 28.4 °F 28.4 °F 100% 30.13 in 0.2 mi Calm Calm - N/A Fog Light Freezing Fog